Location: Unnamed
(23.5608°S, 46.6833°W)
Time: 23:37:35
(UTC-03:00)

Envisat - Visible Passes

Search period start: 06 December 2022 00:00
Search period end: 16 December 2022 00:00
Orbit: 763 x 765 km, 98.2° (Epoch: 06 December)

Date Brightness Start Highest point End Pass type
(mag) Time Alt. Az. Time Alt. Az. Time Alt. Az.
06 Dec 4.3 03:10:22 10° NE 03:15:04 39° ESE 03:19:49 10° S visible
07 Dec 5.7 02:35:25 10° ENE 02:38:22 16° ESE 02:41:20 10° SE visible
07 Dec 3.4 04:12:14 10° NNW 04:16:58 40° W 04:21:45 10° SSW visible
08 Dec 3.1 03:34:56 10° NNE 03:39:59 77° ESE 03:45:07 10° S visible
09 Dec 4.8 02:58:50 10° NE 03:03:11 29° ESE 03:07:34 10° SSE visible
09 Dec 4.3 04:38:20 10° NW 04:42:03 21° W 04:45:49 10° SW visible
10 Dec 5.9 02:25:00 10° E 02:26:33 11° ESE 02:28:07 10° SE visible
10 Dec 3.1 04:00:03 10° N 04:04:59 54° W 04:10:00 10° SSW visible
11 Dec 3.6 03:23:06 10° NNE 03:28:04 57° ESE 03:33:05 10° S visible
12 Dec 5.3 02:47:28 10° ENE 02:51:19 22° ESE 02:55:11 10° SSE visible
12 Dec 3.9 04:25:46 10° NNW 04:30:03 28° W 04:34:24 10° SW visible
13 Dec 2.9 03:47:58 10° N 03:53:02 74° WNW 03:58:10 10° SSW visible
14 Dec 4.2 03:11:25 10° NE 03:16:10 42° ESE 03:20:58 10° S visible
15 Dec 5.7 02:36:20 10° ENE 02:39:27 17° ESE 02:42:36 10° SSE visible
15 Dec 3.5 04:13:23 10° NNW 04:18:04 37° W 04:22:48 10° SSW visible
